|
|
Asteroid 2015 KT120
(Preview)
The 25 - 57 metre wide asteroid 2015 KT120 will make a close pass (76.6 lunar distances, 0.19682 AU), travelling at 8.45 km/second, to the Earth on the 12th June 2018 @ 16:20 UT ±00:01. See more The Lunar Distance (LD), the distance between Earth and the Moon, equals 384,401 km, (or 0.00256 AU).
|
Blobrana
|
0
|
|
|
|
|
Asteroid 2015 DP155
(Preview)
Orbital elements:
2015 DP155 PHA, Earth MOID = 0.0248 AU
Epoch 2014 Dec. 9.0 TT = JDT 2457000.5 MPC
M 257.53777 (2000.0) P Q
n 0.64899333 Peri. 151.09643 -0.48542222 +0.86919652
a 1.3212223 Node 89.72266 -0.81914890 -0.41453521
e 0.2262885 Incl. 5.40199 -0.30554926 -0.26955142
P 1.52 H 2...
|
Blobrana
|
2
|
|
|
|
|
Asteroid 517829 (2015 RL82)
(Preview)
The 580 - 1300 metre wide asteroid 517829 (2015 RL82) will make a close pass (74.3 lunar distances, 0.19101 AU), travelling at 13.32 km/second, to the Earth on the 2nd June 2018 @ 03:04 UT ±00:01. See more The Lunar Distance (LD), the distance between Earth and the Moon, equals 384,401 km, (or 0.00256 A...
|
Blobrana
|
0
|
|
|
|
|
Asteroid 2014 WG365
(Preview)
Orbital elements:
2014 WG365 PHA, Earth MOID = 0.0121 AU
Epoch 2015 June 27.0 TT = JDT 2457200.5 MPC
M 43.74651 (2000.0) P Q
n 0.66775281 Peri. 111.11450 -0.91546167 +0.01108014
a 1.2963598 Node 71.37075 -0.22315726 -0.84580793
e 0.3335458 Incl. 25.11862 +0.33485932 -0.53337245
P 1.48 H...
|
Blobrana
|
1
|
|
|
|
|
Kuiper Belt Object 2015 KH162
(Preview)
2015 KH162 is a large trans-Neptunian object and highly likely dwarf planet orbiting in the scattered disc region of the outermost Solar System. It measures approximately 700 kilometers in diameter Read more
|
Blobrana
|
1
|
|
|
|
|
Asteroid 2015 DT
(Preview)
The 67 - 150 metre wide asteroid 2015 DT will make a close pass (10.9 LD, 0.0279 AU) travelling at 11.80 km/second, to the Earth-Moon system on the 6th March 2015 @ 20:59 UT ±00:01. See more The Lunar Distance (LD), the distance between Earth and the Moon, equals 384,401 km, (or 0.00256 AU).
|
Blobrana
|
1
|
|
|
|
|
Asteroid 2015 KJ19
(Preview)
The 84 - 190 metre wide asteroid 2015 KJ19 will make a close pass (23.8 lunar distances, 0.06137 AU), travelling at 24.04 km/second, to the Earth on the 16th May 2018 @ 08:37 UT ±21:18. See more The Lunar Distance (LD), the distance between Earth and the Moon, equals 384,401 km, (or 0.00256 AU).
|
Blobrana
|
0
|
|
|
|
|
Asteroid 2015 XK1
(Preview)
The 280 - 620 metre wide asteroid 2015 XK1 will make a close pass (51.2 lunar distances, 0.13172 AU), travelling at 11.74 km/second, to the Earth on the 12th May 2018 @ 05:41 UT ±00:01. See more The Lunar Distance (LD), the distance between Earth and the Moon, equals 384,401 km, (or 0.00256 AU).
|
Blobrana
|
0
|
|
|
|
|
Kuiper Belt Object 2010 FX86
(Preview)
2010 FX86 is a relatively bright classical Kuiper belt object with an absolute magnitude of 4.3. Read more EphemerisDate TT R. A. (2000) Decl. Delta r Elong. Phase Mag
2015 04 30 14 01 52.8 -39 53 56 45.3239 46.2316 154.1 0.5 21.0
2015 05 01 14 01 47.4 -39 53 33 45.3227 46.2314 154.2 0.5 21.0
2015 05 02 14...
|
Blobrana
|
2
|
|
|
|
|
Asteroid 2015 JP
(Preview)
The 75 - 170 metre wide asteroid 2015 JP made a close pass (41.4 LD, 0.1063 AU) travelling at 10.55 km/second, to the Earth-Moon system on the 4th May 2015 @ 12:47 UT ±00:06. See more The Lunar Distance (LD), the distance between Earth and the Moon, equals 384,401 km, (or 0.00256 AU).
|
Blobrana
|
1
|
|
|
|
|
Kuiper Belt Object 2014 FC69
(Preview)
Kuiper Belt Object 2014 FC69 is at Opposition (82.996 AU) on the 29th April 2015 EphemerisDate UT R.A. (J2000) Decl. Delta r El. Ph. Mag
2015 04 28 000000 13 54 01.1 -30 31 27 82.990 83.950 162.4 0.2 23.9
2015 04 29 000000 13 53 58.3 -30 31 12 82.990 83.951 162.4 0.2 23.9
2015 04 30 000000 13 53 55.6 -30 30 5...
|
Blobrana
|
2
|
|
|
|
|
Asteroid 2015 XF352
(Preview)
The 150 - 340 metre wide asteroid 2015 XF352 will make a close pass (35.0 lunar distances, 0.09008 AU), travelling at 17.32 km/second, to the Earth on the 23rd April 2018 @ 06:43 UT ±07:48. See more The Lunar Distance (LD), the distance between Earth and the Moon, equals 384,401 km, (or 0.00256 AU).
|
Blobrana
|
0
|
|
|
|
|
Asteroid 2015 HD10
(Preview)
Orbital elements:
2015 HD10 Earth MOID = 0.0032 AU
Epoch 2015 June 27.0 TT = JDT 2457200.5 MPC
M 7.71664 (2000.0) P Q
n 0.34698385 Peri. 51.96242 -0.03888347 +0.99824059
a 2.0056872 Node 215.88646 -0.93905059 -0.05181778
e 0.5612369 Incl. 4.37967 -0.34157294 +0.02882094
P 2.84 H 27.1 G 0....
|
Blobrana
|
2
|
|
|
|
|
Asteroid 2015 XE352
(Preview)
The 180 - 410 metre wide asteroid 2015 XE352 will make a close pass (27.1 lunar distances, 0.06979 AU), travelling at 9.01 km/second, to the Earth on the 18th April 2018 @ 14:41 UT ±00:01. See more The Lunar Distance (LD), the distance between Earth and the Moon, equals 384,401 km, (or 0.00256 AU).
|
Blobrana
|
0
|
|
|
|
|
Asteroid 2015 TX143
(Preview)
The 290 - 650 metre wide asteroid 2015 TX143 will make a close pass (77.8 lunar distances, 0.19994 AU), travelling at 20.41 km/second, to the Earth on the 18th April 2018 @ 08:43 UT ±00:01. See more The Lunar Distance (LD), the distance between Earth and the Moon, equals 384,401 km, (or 0.00256 AU).
|
Blobrana
|
0
|
|
|